STARLINK-1393 (45678 NORAD) Tracking and Keplerian Element Data

This shows tracking and keplerian element data for the satellite.

Feedback or suggestion? Click here.




ElementValue
Catalog45678
NameSTARLINK-1393
Epoch Orbit568
Epoch Day186.50001157
Epoch Year2020
RAAN19.9847
Inclination52.9989
Eccentricity0.0001027
Argument of Perigee85.0707
Mean Anonmoly254.2498
Mean Motion15.62732402
Decay Rate0.00047923
L11 45678U 20035X 20186.50001157 .00047923 00000-0 52653-3 0 9995
L22 45678 52.9989 19.9847 0001027 85.0707 254.2498 15.62732402 5684

Live tracking and technical data element details for STARLINK-1393 (NORAD 45678). STARLINK-1393 can be tracked NOW for your location showing map with azimuth and elevation plus other details from your city location.

Track the satellite on the map from your city or location and see movement details for azimuth, elevation, latitude, longitude, range, height, and movement on the map or in text.







IsCatalogInMostPopularTable: catalog: 45678, numindb: 4
Update: records affected: 1



GetName: 45678 STARLINK-1393

Hit Count: updated at: Sun, 05 Jul 2020 16:38:54 GMT